Powrót do katalogu

COSMOS 1436

AktywnyMilitariaLEO
NORAD 13768·PAYLOAD·🇷🇺 Russia

Wystrzelony Jan 19, 1983 z Plesetsk Cosmodrome

Loading…

Następne Przeloty (najbliższe 24 godziny)

TLE

ŚwieżeSource: Space-Track

Epoka: Sep 14, 2026, 00:12 UTC

1 13768U 83002H   26257.00865804 -.00000022  00000-0 -32260-4 0  9994
2 13768  74.0207 264.5092 0044544 275.1722 112.5265 12.57743513  4163

Śledź COSMOS 1436 w czasie rzeczywistym z AllMySat

Download on the App Store